Other Public Products
Issued by NWS Grand Forks, ND

Home | Current Version | Previous Version | Text Only | Print | Product List | Glossary On
Versions: 1 2 3 4 5 6 7 8 9 10 11 12 13 14 15 16 17 18 19 20 21 22 23 24 25 26 27 28 29 30 31 32 33 34 35 36 37 38 39 40 41 42 43 44 45 46 47 48 49 50
000
FPUS83 KFGF 041131
OPUFGF
PRAIRIE TO PINES WEATHER ROUNDUP
NATIONAL WEATHER SERVICE EASTERN NORTH DAKOTA/GRAND FORKS ND
500 AM CST WED MAR 04 2015

 **SATELLITE DATA USED TO AUGMENT SKY COVER AT AUTOMATED STATIONS**
 *****  WEATHER ACROSS EASTERN NORTH DAKOTA  *****

CITY           SKY/WX    TMP DP  RH WIND       PRES   REMARKS
GRAND FORKS    CLEAR     -7 -14  71 NW9       30.11R WCI -24
GRAND FORKS AF CLEAR     -7 -15  67 NW10      30.10R WCI -25
GRAND CITY NWS   N/A     -8 N/A N/A N6          N/A  WCI -21
BUXTON         NOT AVBL
DEVILS LAKE    CLEAR     -9 -20  59 NW15      30.08R WCI -31
FARGO          CLEAR     -3 -11  68 W9        30.12R WCI -19
WAHPETON ARPT  PTSUNNY   -2  -9  71 W12       30.14R WCI -20
$$

 *****  WEATHER ACROSS CENTRAL AND WESTERN NORTH DAKOTA  *****

CITY           SKY/WX    TMP DP  RH WIND       PRES   REMARKS
JAMESTOWN      PTCLDY    -6 -11  79 NW8       30.08R WCI -21
BISMARCK       CLEAR     -1 -10  65 NW15G23   30.16R WCI -21
MINOT          FAIR      -9 -18  64 W14       30.13R WCI -30
MINOT AFB      CLEAR    -10 -17  70 NW18      30.14R WCI -35
GARRISON         N/A     -9 -16  71 NW14      30.14R WCI -30
WILLISTON      CLEAR     -9 -15  75 NW9       30.21R WCI -26
DICKINSON      CLEAR     -4 -13  65 NW20      30.08R WCI -27
HETTINGER      CLEAR     -2  -9  72 NW13      30.10R WCI -20
$$

 *****  OTHER OBSERVATIONS NORTHEAST NORTH DAKOTA  *****

CITY           SKY/WX    TMP DP  RH WIND       PRES   REMARKS
WALHALLA         N/A     -9 -17  70 NW8       30.13R WCI -26
LANGDON        NOT AVBL
CAVALIER       FAIR      -8 -13  77 NW9       30.13R WCI -25
GRAFTON        NOT AVBL
CANDO          FAIR     -15 -20  76 NW9       30.11R WCI -33
FORT TOTTEN      N/A     -9 -17  66 NW6       29.95S WCI -22
ROLLA          PTSUNNY  N/A N/A N/A NW22      30.06R
RUGBY          FAIR     -13 -18  77 NW17      30.12R WCI -38
 ***** THE ABOVE OBSERVATIONS ARE NON NWS ARE NOT QUALITY
        CONTROLLED AND MAY MIS-REPORT RAIN FOR SNOW...
$$

 *****  OTHER OBSERVATIONS SOUTHEAST NORTH DAKOTA *****

CITY           SKY/WX    TMP DP  RH WIND       PRES   REMARKS
COOPERSTOWN    NOT AVBL
VALLEY CITY    FAIR      -4 -11  71 NW8       30.10R WCI -19
OAKES          FLURRIES   1   0  92 W10       30.11R WCI -14
GWINNER        PTSUNNY    1  -8  66 W9        30.12R WCI -14
SHEYENNE NWR     N/A     -6 -15  65 W7        29.95  WCI -20
BUFFALO        NOT AVBL
WYNDMERE       NOT AVBL
 ***** THE ABOVE OBSERVATIONS ARE NON NWS ARE NOT QUALITY
       CONTROLLED AND MAY MIS-REPORT RAIN FOR SNOW...
$$

  *****  WEATHER ACROSS NORTHERN MINNESOTA  *****

CITY           SKY/WX    TMP DP  RH WIND       PRES   REMARKS
FLAG ISLAND    PTCLDY   -15 -20  76 W7        29.98R WCI -31
WARROAD        CLEAR    -13 -20  70 W7        30.01R WCI -29
ROSEAU         CLEAR    -11 -18  70 W9        30.03R WCI -29
HALLOCK        CLEAR     -9 -17  70 NW9       30.09R WCI -27
THF RVR FALLS  PTCLDY    -9 -15  77 NW8       30.05R WCI -26
HALSTAD          N/A     -5 -13  70 W9          N/A  WCI -22
FOSSTON        PTCLDY   -11 -15  84 W9        30.04R WCI -29
BAUDETTE       CLEAR    -14 -20  74 W5        29.96R WCI -26
WASKISH        PTCLDY    -9 -15  77 W6        29.99R WCI -23
CROOKSTON      CLEAR     -8 -11  84 NW13      30.11R WCI -28
$$
  *****  WEATHER ACROSS CENTRAL AND WEST MINNESOTA  *****

CITY           SKY/WX    TMP DP  RH WIND       PRES   REMARKS
BEMIDJI        PTCLDY    -9 -14  79 W8        29.99R WCI -26
PARK RAPIDS    CLEAR    -11 -17  75 W9        29.99R WCI -29
WADENA         CLEAR    -11 -15  84 W9        30.04R WCI -29
DETROIT LAKES  CLEAR     -4  -8  84 W9        30.05R WCI -20
MOORHEAD       FAIR       0  -8  71 W8        30.13R WCI -15
FERGUS FALLS   CLEAR     -9 -15  77 W8        30.15R WCI -26
ELBOW LAKE     CLOUDY    -6 -11  78 W8        30.10R WCI -21
MORRIS MN      FAIR      -6 -13  71 W12       30.11R WCI -24
STAPLES        CLEAR    -13 -17  84 W8        30.04R WCI -30
WHEATON        PTCLDY    -8 -15  71 W6        30.16R WCI -21
$$
  *****  WEATHER ELSEWHERE ACROSS MINNESOTA  *****

CITY           SKY/WX    TMP DP  RH WIND       PRES   REMARKS
DULUTH         CLEAR     -6 -13  71 W10       29.92R WCI -24
INTRNTL FALLS  CLEAR    -13 -17  82 W6        29.94R WCI -27
ELY            CLEAR    -11 -15  84 W7        29.90R WCI -26
CLOQUET        CLEAR     -6 -13  71 W7        29.97R WCI -20
BRAINERD       CLEAR     -8 -13  78 W9        30.03R WCI -25
HIBBING        CLEAR     -9 -15  75 W3        29.94R
ALEXANDRIA     CLEAR     -7 -12  79 W9        30.05R WCI -24
SAINT CLOUD    CLEAR     -3 -11  68 W9        30.08R WCI -19
MINNEAPOLIS    CLEAR      0  -8  69 W9        30.12R WCI -15
$$

  *****  WEATHER ACROSS SOUTH DAKOTA  *****

CITY           SKY/WX    TMP DP  RH WIND       PRES   REMARKS
SIOUX FALLS    PTCLDY     2  -3  80 SW5       30.15R WCI  -8
BROOKINGS      NOT AVBL
WATERTOWN      MOCLDY    -8 -14  74 SW6       30.07R WCI -21
HURON          PTCLDY    -5  -9  83 S5        30.15R WCI -16
SISSETON       NOT AVBL
ABERDEEN       LGT SNOW   3  -2  79 CALM      30.15R
MITCHELL       CLEAR      1  -3  83 S5        30.17R WCI  -9
PIERRE         CLEAR      7  -2  66 NW17      30.14R WCI -12
MOBRIDGE       CLEAR      7  -4  60 NW18G26   30.09R WCI -12
RAPID CITY     CLEAR      3  -5  69 N12       30.09R WCI -13
$$

  *****  SOME WEATHER IN NEARBY STATES *****

CITY           SKY/WX    TMP DP  RH WIND       PRES   REMARKS
GLASGOW MT     PTCLDY    -3 -11  68 NW7       30.22R WCI -16
GREAT FALLS MT CLEAR      5  -2  72 SW9       30.15F WCI  -9
CHEYENNE WY    PTCLDY     2  -4  76 W3        29.96R
SCOTTSBLUFF NE MOCLDY     8   4  83 W7        30.11R WCI  -3
OMAHA NE       PTCLDY    15   7  70 N7        30.22R WCI   5
DES MOINES IA  PTCLDY    14   0  53 N12       30.19R WCI   0
DAVENPORT IA   CLEAR      9   0  67 NW12      30.11R WCI  -6
CHICAGO IL     MOCLDY    20  14  77 W14       29.97R WCI   7
EAU CLAIRE WI  CLEAR      1  -8  66 W12       30.05R WCI -16
LA CROSSE WI   PTCLDY     8  -1  66 NW13      30.10R WCI  -8
$$

  *****  SOME NATIONAL WEATHER *****

CITY           SKY/WX    TMP DP  RH WIND       PRES   REMARKS
LA GUARDIA NY  LGT RAIN  37  32  82 SW8       29.80R
RALEIGH NC     FOG       42  40  92 SW8       30.01R VSB 1/8
ATLANTA GA     FOG       55  54  94 SW10      30.03S VSB<1/4
NEW ORLEANS LA PTCLDY    67  64  90 SE5       29.97R
OKLAHOMA CITY  CLOUDY    36  27  69 N21G26    29.97R
ALBUQUERQUE NM CLEAR     32  26  78 CALM      29.88S
SALT LAKE CITY PTCLDY    28  21  75 SE6       30.05S WCI  22
LOS ANGELES CA CLEAR     51  44  77 NE3       29.98F
BOISE ID       CLEAR     22  14  71 CALM      30.17R
SEATTLE WA     PTCLDY    34  23  64 SE5       30.27S
$$

*** WEATHER ACROSS MANITOBA...SASKATCHEWAN AND ONTARIO ***
                ***ONTARIO***

CITY           SKY/WX    TMP DP  RH WIND       PRES   REMARKS
GERALDTON      CLEAR     -8 -15  71 W12G20    29.67R WCI -27
THUNDER BAY    FLURRIES  -4 -11  71 W10G17    29.89R WCI -21
SIOUX LOOKOUT  PTCLDY   -15 -22  70 NW8       29.83R WCI -32
TORONTO        MOCLDY    27  19  74 W9        29.79R WCI  17
BIG TROUT LK   CLEAR    -18 -24  76 N9        29.82R WCI -38
PICKLE LAKE    PTCLDY   -13 -18  77 W13G20    29.70  WCI -34
DRYDEN         PTCLDY   -17 -22  76 W10       29.85R WCI -37
KENORA         FLURRIES -15 -20  76 NW8       29.91R WCI -32
$$
                *** MANITOBA***

CITY           SKY/WX    TMP DP  RH WIND       PRES   REMARKS
BRANDON        CLEAR    -20 -26  76 NW12      30.13R WCI -42
DAUPHIN        MOCLDY   -13 -20  70 W13       30.16R WCI -34
ISLAND LAKE    FLURRIES -18 -24  76 N8        30.00R WCI -37
PILOT MOUND      N/A    -15 -20  76 W5          N/A  WCI -27
THE PAS        CLEAR    -17 -22  76 NW10      30.20R WCI -37
THOMPSON       CLEAR    -20 -27  69 NW8       30.11R WCI -39
WINNIPEG       PTCLDY   -15 -22  70 W13       30.09R WCI -37
LYNN LAKE      CLEAR    -24 -29  76 NW8       30.12S WCI -43
CHURCHILL      CRYSTALS -24 -29  76 NW16      30.03S WCI -51
GILLAM         CLEAR    -22 -29  69 W9        30.04S WCI -42
$$
                ***SASKATCHEWAN***

CITY           SKY/WX    TMP DP  RH WIND       PRES   REMARKS
ESTEVAN        CLEAR    -17 -24  70 NW15      30.18R WCI -41
KINDERSLEY     PTCLDY   -13 -20  70 NW7       30.24S WCI -29
LLOYDMINSTER   CLEAR    -17 -24  70 SW9       30.22S WCI -36
PRINCE ALBERT  CLEAR    -22 -27  76 W6        30.29R WCI -38
REGINA         CLEAR    -20 -26  76 NW9       30.22R WCI -40



USA.gov is the U.S. government's official web portal to all federal, state and local government web resources and services.